QPF
0.00 0.00 0.00 0.00 0.00 0.01 0.02 0.03 0.03 0.03 0.04 0.03 0.02 0.02 0.03 0.04 0.04 0.06 0.07 0.07 0.09 0.11 0.10 0.12 0.17 0.15 0.13 0.14 0.15 0.15 0.16 0.16 0.16 0.13 0.12 0.12 0.13 0.14 0.15 0.16 0.20 0.22 0.25 0.31 0.23 0.13 0.12 0.09 0.07
0.00 0.00 0.00 0.00 0.00 0.01 0.02 0.03 0.04 0.05 0.04 0.03 0.01 0.02 0.02 0.04 0.05 0.06 0.07 0.09 0.09 0.10 0.09 0.11 0.16 0.17 0.14 0.12 0.11 0.12 0.12 0.11 0.10 0.11 0.11 0.12 0.14 0.15 0.15 0.16 0.17 0.19 0.24 0.33 0.26 0.17 0.10 0.08 0.07
0.00 0.00 0.00 0.01 0.00 0.01 0.02 0.02 0.03 0.03 0.03 0.02 0.02 0.01 0.02 0.05 0.06 0.06 0.07 0.09 0.10 0.09 0.09 0.11 0.13 0.17 0.18 0.16 0.13 0.12 0.11 0.10 0.08 0.08 0.09 0.11 0.12 0.13 0.14 0.13 0.13 0.15 0.17 0.21 0.22 0.16 0.09 0.07 0.06
0.00 0.00 0.00 0.00 0.01 0.01 0.01 0.01 0.01 0.02 0.01 0.01 0.01 0.03 0.05 0.06 0.07 0.06 0.08 0.07 0.06 0.06 0.06 0.08 0.13 0.13 0.13 0.13 0.15 0.16 0.14 0.11 0.09 0.08 0.09 0.09 0.12 0.14 0.15 0.12 0.11 0.13 0.13 0.13 0.12 0.10 0.08 0.06 0.06
0.00 0.00 0.00 0.00 0.00 0.01 0.00 0.01 0.01 0.02 0.02 0.01 0.01 0.04 0.09 0.08 0.06 0.05 0.05 0.04 0.04 0.05 0.07 0.07 0.10 0.09 0.08 0.09 0.11 0.12 0.13 0.12 0.09 0.09 0.08 0.08 0.14 0.21 0.20 0.13 0.11 0.12 0.14 0.14 0.12 0.11 0.09 0.07 0.07
0.00 0.00 0.00 0.00 0.01 0.01 0.00 0.00 0.01 0.02 0.02 0.02 0.02 0.04 0.10 0.09 0.05 0.05 0.04 0.03 0.03 0.04 0.07 0.09 0.11 0.12 0.10 0.10 0.09 0.10 0.12 0.11 0.09 0.09 0.09 0.11 0.21 0.26 0.18 0.13 0.10 0.09 0.13 0.16 0.13 0.12 0.12 0.09 0.09
0.00 0.00 0.00 0.00 0.01 0.01 0.00 0.00 0.01 0.01 0.01 0.02 0.02 0.03 0.07 0.07 0.05 0.04 0.03 0.03 0.04 0.04 0.07 0.09 0.09 0.10 0.08 0.07 0.07 0.14 0.21 0.17 0.14 0.12 0.14 0.20 0.25 0.20 0.13 0.10 0.10 0.09 0.11 0.12 0.12 0.10 0.11 0.11 0.11
0.00 0.00 0.00 0.00 0.00 0.00 0.00 0.00 0.00 0.01 0.01 0.01 0.01 0.02 0.05 0.05 0.04 0.03 0.02 0.03 0.04 0.06 0.11 0.09 0.05 0.07 0.08 0.08 0.07 0.10 0.15 0.17 0.15 0.16 0.20 0.23 0.21 0.17 0.11 0.09 0.11 0.10 0.09 0.10 0.11 0.09 0.10 0.11 0.09
0.00 0.00 0.00 0.00 0.00 0.00 0.00 0.00 0.00 0.00 0.01 0.01 0.01 0.01 0.02 0.02 0.02 0.02 0.02 0.03 0.03 0.05 0.11 0.07 0.05 0.05 0.07 0.08 0.07 0.09 0.12 0.16 0.21 0.26 0.23 0.17 0.17 0.16 0.13 0.10 0.09 0.08 0.08 0.10 0.11 0.11 0.09 0.07 0.06
0.00 0.00 0.00 0.00 0.00 0.00 0.00 0.00 0.00 0.00 0.00 0.00 0.00 0.01 0.01 0.01 0.01 0.02 0.02 0.03 0.03 0.06 0.08 0.05 0.05 0.04 0.04 0.04 0.05 0.07 0.10 0.14 0.18 0.19 0.13 0.11 0.13 0.14 0.12 0.13 0.13 0.10 0.11 0.10 0.09 0.08 0.06 0.05 0.06
0.00 0.00 0.00 0.00 0.00 0.00 0.00 0.00 0.00 0.00 0.00 0.00 0.00 0.01 0.01 0.01 0.01 0.02 0.02 0.02 0.04 0.06 0.06 0.06 0.06 0.04 0.03 0.03 0.03 0.06 0.10 0.11 0.11 0.11 0.10 0.10 0.09 0.07 0.08 0.11 0.12 0.11 0.10 0.10 0.07 0.05 0.05 0.05 0.06
0.00 0.00 0.00 0.00 0.00 0.00 0.00 0.00 0.00 0.00 0.00 0.00 0.00 0.00 0.01 0.01 0.01 0.01 0.01 0.02 0.04 0.05 0.05 0.06 0.06 0.04 0.03 0.03 0.03 0.08 0.11 0.09 0.08 0.07 0.06 0.08 0.10 0.08 0.07 0.08 0.09 0.09 0.09 0.10 0.08 0.06 0.05 0.04 0.04
0.00 0.00 0.00 0.00 0.00 0.00 0.00 0.00 0.00 0.00 0.00 0.00 0.00 0.00 0.00 0.00 0.00 0.00 0.01 0.01 0.03 0.03 0.03 0.04 0.04 0.04 0.04 0.04 0.05 0.09 0.11 0.08 0.06 0.05 0.07 0.07 0.09 0.11 0.09 0.08 0.08 0.07 0.07 0.06 0.07 0.07 0.05 0.05 0.04
0.00 0.00 0.00 0.00 0.00 0.00 0.00 0.00 0.00 0.00 0.00 0.00 0.00 0.00 0.00 0.00 0.00 0.00 0.00 0.01 0.02 0.02 0.02 0.02 0.02 0.02 0.03 0.04 0.06 0.09 0.08 0.07 0.05 0.06 0.07 0.05 0.05 0.08 0.09 0.08 0.07 0.07 0.05 0.04 0.05 0.06 0.07 0.06 0.05
0.00 0.00 0.00 0.00 0.00 0.00 0.00 0.00 0.00 0.00 0.00 0.00 0.00 0.00 0.00 0.00 0.00 0.00 0.00 0.01 0.01 0.01 0.01 0.01 0.01 0.01 0.03 0.05 0.06 0.06 0.05 0.04 0.05 0.06 0.06 0.04 0.04 0.07 0.09 0.09 0.08 0.06 0.05 0.07 0.07 0.06 0.05 0.06 0.05
0.00 0.00 0.00 0.00 0.00 0.00 0.00 0.00 0.00 0.00 0.00 0.00 0.00 0.00 0.00 0.00 0.00 0.00 0.00 0.01 0.01 0.02 0.02 0.02 0.01 0.02 0.03 0.05 0.06 0.04 0.03 0.04 0.05 0.05 0.05 0.04 0.03 0.04 0.08 0.08 0.08 0.05 0.04 0.06 0.08 0.07 0.07 0.09 0.07
0.00 0.00 0.00 0.00 0.00 0.00 0.00 0.00 0.00 0.00 0.00 0.00 0.00 0.00 0.00 0.01 0.01 0.01 0.01 0.01 0.01 0.02 0.02 0.02 0.03 0.02 0.03 0.03 0.05 0.05 0.06 0.07 0.05 0.04 0.05 0.03 0.02 0.03 0.06 0.08 0.09 0.05 0.04 0.05 0.04 0.06 0.09 0.10 0.10
0.00 0.00 0.00 0.00 0.00 0.00 0.00 0.00 0.00 0.00 0.00 0.00 0.00 0.00 0.00 0.01 0.01 0.01 0.02 0.01 0.01 0.02 0.02 0.03 0.05 0.05 0.03 0.03 0.05 0.06 0.06 0.05 0.05 0.04 0.04 0.03 0.04 0.05 0.05 0.06 0.07 0.06 0.06 0.08 0.08 0.11 0.11 0.09 0.10
0.00 0.00 0.00 0.01 0.00 0.01 0.01 0.00 0.00 0.00 0.00 0.00 0.00 0.00 0.01 0.01 0.00 0.01 0.01 0.01 0.01 0.01 0.02 0.03 0.05 0.07 0.05 0.04 0.04 0.05 0.06 0.06 0.05 0.03 0.02 0.02 0.03 0.05 0.07 0.04 0.07 0.07 0.07 0.08 0.09 0.10 0.10 0.08 0.07
0.00 0.00 0.00 0.01 0.00 0.01 0.01 0.00 0.01 0.00 0.00 0.00 0.00 0.00 0.00 0.00 0.00 0.01 0.01 0.02 0.01 0.01 0.01 0.02 0.02 0.03 0.02 0.04 0.04 0.04 0.04 0.04 0.04 0.02 0.03 0.02 0.02 0.04 0.05 0.05 0.06 0.07 0.07 0.07 0.08 0.08 0.07 0.07 0.06
0.00 0.00 0.00 0.00 0.00 0.00 0.01 0.01 0.01 0.01 0.00 0.00 0.00 0.00 0.01 0.01 0.01 0.00 0.00 0.01 0.01 0.01 0.01 0.01 0.02 0.02 0.03 0.03 0.03 0.04 0.06 0.04 0.04 0.04 0.04 0.03 0.02 0.03 0.04 0.05 0.06 0.07 0.06 0.07 0.09 0.09 0.09 0.10 0.10
0.00 0.00 0.00 0.00 0.00 0.01 0.01 0.01 0.01 0.01 0.01 0.00 0.00 0.00 0.00 0.00 0.00 0.00 0.00 0.00 0.00 0.01 0.00 0.01 0.01 0.02 0.02 0.03 0.02 0.04 0.05 0.05 0.05 0.04 0.04 0.03 0.03 0.04 0.05 0.04 0.06 0.06 0.05 0.06 0.06 0.08 0.10 0.13 0.13
0.00 0.00 0.00 0.00 0.00 0.00 0.00 0.00 0.00 0.00 0.00 0.00 0.00 0.00 0.00 0.00 0.00 0.00 0.00 0.00 0.00 0.00 0.00 0.00 0.01 0.01 0.02 0.02 0.03 0.04 0.03 0.03 0.03 0.03 0.04 0.05 0.04 0.05 0.04 0.05 0.06 0.07 0.05 0.04 0.03 0.04 0.06 0.10 0.10
0.00 0.00 0.00 0.00 0.00 0.00 0.00 0.00 0.00 0.00 0.00 0.00 0.00 0.00 0.00 0.00 0.00 0.00 0.00 0.00 0.00 0.00 0.00 0.00 0.01 0.02 0.01 0.02 0.02 0.03 0.03 0.03 0.03 0.04 0.04 0.04 0.04 0.04 0.03 0.03 0.04 0.04 0.04 0.03 0.03 0.03 0.04 0.07 0.07
0.00 0.00 0.00 0.00 0.00 0.00 0.00 0.00 0.00 0.00 0.00 0.00 0.00 0.00 0.00 0.00 0.00 0.00 0.00 0.00 0.00 0.00 0.00 0.00 0.01 0.02 0.01 0.01 0.01 0.02 0.03 0.03 0.03 0.03 0.03 0.03 0.02 0.03 0.04 0.03 0.03 0.03 0.04 0.03 0.03 0.03 0.04 0.06 0.06
0.00 0.00 0.00 0.00 0.00 0.00 0.00 0.00 0.00 0.00 0.00 0.00 0.00 0.00 0.00 0.00 0.00 0.00 0.00 0.00 0.00 0.00 0.01 0.01 0.01 0.01 0.01 0.01 0.01 0.02 0.02 0.02 0.01 0.01 0.02 0.03 0.03 0.02 0.02 0.03 0.03 0.03 0.03 0.02 0.03 0.02 0.03 0.04 0.04
0.00 0.00 0.00 0.00 0.00 0.00 0.00 0.00 0.00 0.00 0.00 0.00 0.00 0.00 0.00 0.00 0.00 0.01 0.01 0.01 0.00 0.00 0.01 0.02 0.01 0.00 0.00 0.01 0.01 0.01 0.01 0.01 0.01 0.01 0.02 0.02 0.03 0.02 0.02 0.02 0.02 0.02 0.02 0.02 0.02 0.01 0.02 0.03 0.04
0.00 0.00 0.00 0.00 0.00 0.00 0.00 0.00 0.00 0.00 0.00 0.00 0.00 0.00 0.00 0.00 0.00 0.00 0.01 0.01 0.00 0.00 0.01 0.01 0.00 0.00 0.00 0.00 0.00 0.00 0.01 0.01 0.01 0.01 0.02 0.02 0.03 0.02 0.02 0.02 0.02 0.03 0.02 0.01 0.01 0.01 0.01 0.03 0.04
0.00 0.00 0.00 0.00 0.00 0.00 0.00 0.00 0.00 0.00 0.00 0.00 0.00 0.00 0.00 0.00 0.00 0.00 0.00 0.00 0.00 0.00 0.00 0.00 0.00 0.00 0.00 0.00 0.00 0.00 0.00 0.00 0.01 0.01 0.01 0.02 0.03 0.03 0.03 0.04 0.03 0.03 0.02 0.01 0.01 0.01 0.02 0.04 0.04
0.00 0.00 0.00 0.00 0.00 0.00 0.00 0.00 0.00 0.00 0.00 0.00 0.00 0.00 0.00 0.00 0.00 0.00 0.00 0.00 0.00 0.00 0.00 0.00 0.00 0.00 0.00 0.00 0.00 0.00 0.00 0.00 0.01 0.01 0.02 0.02 0.03 0.03 0.03 0.03 0.02 0.02 0.01 0.01 0.02 0.01 0.02 0.03 0.04
MSLP
1005.45 1006.06 1006.97 1008.13 1009.43 1010.75 1011.95 1012.94 1013.66 1014.08 1014.25 1014.25 1014.14 1014.00 1013.86 1013.76 1013.69 1013.63 1013.57 1013.51 1013.47 1013.46 1013.52 1013.65 1013.85 1014.08 1014.29 1014.44 1014.49 1014.41 1014.22 1013.95 1013.65 1013.39 1013.18 1013.06 1013.02 1013.02 1013.03 1013.03 1012.99 1012.91 1012.83 1012.75 1012.72 1012.73 1012.79 1012.88 1012.98
1005.53 1006.39 1007.56 1008.96 1010.46 1011.91 1013.16 1014.12 1014.74 1015.02 1015.03 1014.87 1014.62 1014.38 1014.19 1014.05 1013.97 1013.92 1013.87 1013.81 1013.77 1013.76 1013.80 1013.91 1014.09 1014.31 1014.52 1014.67 1014.72 1014.66 1014.50 1014.27 1014.01 1013.79 1013.62 1013.53 1013.49 1013.49 1013.48 1013.44 1013.37 1013.26 1013.16 1013.09 1013.08 1013.13 1013.24 1013.37 1013.48
1005.79 1006.86 1008.25 1009.83 1011.45 1012.96 1014.21 1015.10 1015.60 1015.74 1015.61 1015.33 1014.99 1014.69 1014.46 1014.33 1014.25 1014.20 1014.15 1014.08 1014.00 1013.95 1013.95 1014.02 1014.17 1014.36 1014.57 1014.73 1014.82 1014.81 1014.71 1014.55 1014.37 1014.21 1014.10 1014.03 1014.00 1013.97 1013.92 1013.83 1013.71 1013.57 1013.45 1013.38 1013.39 1013.46 1013.60 1013.74 1013.86
1006.21 1007.44 1008.97 1010.64 1012.30 1013.79 1014.97 1015.75 1016.13 1016.14 1015.91 1015.55 1015.18 1014.86 1014.65 1014.53 1014.46 1014.41 1014.35 1014.25 1014.12 1014.02 1013.96 1013.99 1014.10 1014.28 1014.49 1014.69 1014.82 1014.89 1014.87 1014.80 1014.70 1014.61 1014.54 1014.50 1014.47 1014.41 1014.33 1014.19 1014.02 1013.85 1013.71 1013.64 1013.65 1013.75 1013.89 1014.03 1014.14
1006.74 1008.07 1009.64 1011.32 1012.93 1014.33 1015.38 1016.03 1016.29 1016.21 1015.92 1015.54 1015.18 1014.90 1014.73 1014.64 1014.60 1014.55 1014.45 1014.31 1014.14 1013.98 1013.88 1013.87 1013.96 1014.14 1014.37 1014.60 1014.79 1014.92 1014.98 1014.98 1014.96 1014.93 1014.90 1014.88 1014.84 1014.77 1014.65 1014.49 1014.29 1014.10 1013.95 1013.88 1013.90 1014.00 1014.13 1014.26 1014.33
1007.34 1008.69 1010.24 1011.83 1013.31 1014.55 1015.45 1015.96 1016.11 1015.98 1015.69 1015.35 1015.05 1014.85 1014.75 1014.71 1014.69 1014.64 1014.52 1014.33 1014.12 1013.92 1013.78 1013.75 1013.84 1014.03 1014.28 1014.54 1014.77 1014.94 1015.05 1015.10 1015.12 1015.12 1015.12 1015.10 1015.07 1014.99 1014.86 1014.68 1014.48 1014.30 1014.17 1014.11 1014.13 1014.22 1014.33 1014.42 1014.44
1007.98 1009.31 1010.75 1012.19 1013.49 1014.53 1015.25 1015.63 1015.70 1015.57 1015.32 1015.08 1014.89 1014.80 1014.78 1014.81 1014.81 1014.75 1014.60 1014.38 1014.13 1013.91 1013.76 1013.73 1013.82 1014.02 1014.28 1014.55 1014.79 1014.97 1015.07 1015.13 1015.15 1015.15 1015.15 1015.14 1015.10 1015.03 1014.91 1014.76 1014.58 1014.43 1014.32 1014.28 1014.30 1014.38 1014.46 1014.50 1014.48
1008.65 1009.91 1011.22 1012.46 1013.54 1014.37 1014.91 1015.17 1015.21 1015.10 1014.95 1014.83 1014.78 1014.82 1014.90 1014.98 1015.01 1014.94 1014.77 1014.52 1014.25 1014.01 1013.86 1013.84 1013.94 1014.15 1014.40 1014.65 1014.85 1014.99 1015.05 1015.07 1015.05 1015.03 1015.01 1015.00 1014.97 1014.92 1014.83 1014.71 1014.58 1014.46 1014.39 1014.37 1014.39 1014.45 1014.50 1014.50 1014.43
1009.36 1010.53 1011.68 1012.71 1013.56 1014.18 1014.56 1014.73 1014.75 1014.71 1014.67 1014.69 1014.80 1014.95 1015.13 1015.26 1015.30 1015.22 1015.03 1014.76 1014.47 1014.24 1014.10 1014.09 1014.19 1014.38 1014.60 1014.80 1014.94 1015.00 1014.99 1014.93 1014.85 1014.79 1014.75 1014.73 1014.72 1014.70 1014.65 1014.58 1014.49 1014.41 1014.37 1014.36 1014.38 1014.42 1014.44 1014.41 1014.30
1010.12 1011.20 1012.18 1013.00 1013.63 1014.06 1014.30 1014.40 1014.43 1014.46 1014.54 1014.70 1014.93 1015.20 1015.45 1015.61 1015.66 1015.56 1015.35 1015.07 1014.78 1014.55 1014.43 1014.42 1014.52 1014.68 1014.85 1014.97 1015.02 1014.98 1014.88 1014.74 1014.61 1014.51 1014.45 1014.44 1014.45 1014.46 1014.45 1014.41 1014.36 1014.30 1014.27 1014.26 1014.28 1014.30 1014.30 1014.24 1014.13
1010.92 1011.90 1012.73 1013.37 1013.81 1014.07 1014.20 1014.25 1014.29 1014.38 1014.56 1014.83 1015.15 1015.49 1015.78 1015.97 1016.00 1015.89 1015.66 1015.38 1015.10 1014.88 1014.77 1014.77 1014.85 1014.97 1015.07 1015.11 1015.07 1014.94 1014.76 1014.55 1014.38 1014.26 1014.21 1014.21 1014.24 1014.28 1014.29 1014.28 1014.23 1014.18 1014.14 1014.12 1014.13 1014.13 1014.12 1014.06 1013.95
1011.73 1012.63 1013.32 1013.81 1014.09 1014.23 1014.27 1014.28 1014.33 1014.46 1014.70 1015.03 1015.41 1015.77 1016.07 1016.24 1016.26 1016.13 1015.90 1015.62 1015.35 1015.16 1015.06 1015.05 1015.11 1015.19 1015.23 1015.20 1015.08 1014.88 1014.64 1014.41 1014.23 1014.12 1014.08 1014.11 1014.17 1014.23 1014.26 1014.24 1014.18 1014.11 1014.04 1013.99 1013.97 1013.97 1013.97 1013.93 1013.85
1012.49 1013.31 1013.90 1014.27 1014.46 1014.51 1014.49 1014.48 1014.52 1014.66 1014.91 1015.25 1015.62 1015.97 1016.23 1016.37 1016.36 1016.22 1016.00 1015.74 1015.50 1015.33 1015.25 1015.25 1015.29 1015.32 1015.31 1015.22 1015.06 1014.83 1014.58 1014.35 1014.19 1014.12 1014.13 1014.20 1014.28 1014.35 1014.37 1014.32 1014.23 1014.11 1014.00 1013.92 1013.89 1013.89 1013.90 1013.91 1013.89
1013.11 1013.87 1014.40 1014.70 1014.84 1014.85 1014.81 1014.77 1014.81 1014.93 1015.15 1015.44 1015.76 1016.04 1016.25 1016.34 1016.31 1016.16 1015.95 1015.73 1015.53 1015.40 1015.34 1015.34 1015.37 1015.38 1015.34 1015.22 1015.04 1014.81 1014.58 1014.40 1014.29 1014.27 1014.33 1014.44 1014.54 1014.61 1014.61 1014.53 1014.38 1014.22 1014.07 1013.96 1013.91 1013.93 1013.98 1014.05 1014.09
1013.50 1014.23 1014.73 1015.02 1015.15 1015.17 1015.15 1015.12 1015.14 1015.23 1015.39 1015.60 1015.82 1016.01 1016.14 1016.18 1016.13 1015.99 1015.81 1015.63 1015.49 1015.40 1015.37 1015.38 1015.41 1015.41 1015.35 1015.23 1015.06 1014.86 1014.67 1014.54 1014.49 1014.53 1014.64 1014.77 1014.88 1014.94 1014.91 1014.79 1014.61 1014.40 1014.22 1014.09 1014.05 1014.09 1014.20 1014.33 1014.46
1013.62 1014.32 1014.83 1015.16 1015.35 1015.43 1015.45 1015.45 1015.46 1015.51 1015.59 1015.70 1015.82 1015.91 1015.97 1015.96 1015.89 1015.77 1015.64 1015.52 1015.43 1015.39 1015.39 1015.42 1015.45 1015.45 1015.40 1015.29 1015.14 1014.98 1014.84 1014.76 1014.76 1014.83 1014.96 1015.10 1015.21 1015.25 1015.20 1015.05 1014.85 1014.62 1014.43 1014.31 1014.28 1014.36 1014.51 1014.71 1014.91
1013.46 1014.15 1014.69 1015.09 1015.38 1015.56 1015.67 1015.72 1015.73 1015.74 1015.75 1015.76 1015.78 1015.78 1015.77 1015.73 1015.66 1015.58 1015.50 1015.44 1015.41 1015.41 1015.45 1015.50 1015.53 1015.54 1015.49 1015.40 1015.28 1015.15 1015.05 1015.01 1015.03 1015.11 1015.24 1015.36 1015.45 1015.47 1015.41 1015.26 1015.05 1014.84 1014.66 1014.56 1014.56 1014.67 1014.86 1015.10 1015.35
1013.05 1013.73 1014.33 1014.83 1015.24 1015.55 1015.76 1015.87 1015.91 1015.89 1015.84 1015.77 1015.69 1015.63 1015.57 1015.52 1015.48 1015.45 1015.43 1015.43 1015.45 1015.50 1015.56 1015.62 1015.66 1015.67 1015.64 1015.57 1015.47 1015.37 1015.28 1015.24 1015.25 1015.31 1015.40 1015.49 1015.56 1015.56 1015.49 1015.36 1015.19 1015.01 1014.88 1014.81 1014.84 1014.97 1015.17 1015.43 1015.69
1012.49 1013.17 1013.83 1014.44 1014.97 1015.41 1015.72 1015.90 1015.96 1015.92 1015.81 1015.68 1015.55 1015.44 1015.37 1015.34 1015.33 1015.36 1015.41 1015.47 1015.54 1015.61 1015.69 1015.75 1015.80 1015.81 1015.80 1015.74 1015.67 1015.58 1015.49 1015.44 1015.41 1015.42 1015.45 1015.50 1015.52 1015.52 1015.47 1015.38 1015.27 1015.16 1015.08 1015.05 1015.10 1015.21 1015.40 1015.63 1015.87
1011.90 1012.57 1013.28 1013.98 1014.63 1015.16 1015.55 1015.78 1015.85 1015.79 1015.65 1015.47 1015.30 1015.19 1015.13 1015.13 1015.19 1015.28 1015.39 1015.50 1015.61 1015.70 1015.79 1015.85 1015.90 1015.92 1015.92 1015.89 1015.83 1015.76 1015.67 1015.58 1015.50 1015.45 1015.42 1015.41 1015.40 1015.39 1015.37 1015.35 1015.31 1015.28 1015.26 1015.27 1015.32 1015.40 1015.53 1015.69 1015.86
1011.38 1012.05 1012.80 1013.56 1014.27 1014.86 1015.29 1015.52 1015.57 1015.48 1015.30 1015.09 1014.91 1014.80 1014.78 1014.85 1014.97 1015.14 1015.31 1015.47 1015.61 1015.71 1015.79 1015.85 1015.90 1015.94 1015.97 1015.97 1015.94 1015.88 1015.79 1015.68 1015.56 1015.44 1015.35 1015.29 1015.25 1015.25 1015.28 1015.32 1015.37 1015.41 1015.45 1015.49 1015.51 1015.54 1015.58 1015.63 1015.70
1011.02 1011.69 1012.45 1013.23 1013.96 1014.55 1014.96 1015.16 1015.16 1015.01 1014.78 1014.54 1014.36 1014.27 1014.30 1014.44 1014.64 1014.88 1015.12 1015.32 1015.47 1015.58 1015.66 1015.72 1015.78 1015.84 1015.90 1015.94 1015.96 1015.93 1015.86 1015.74 1015.59 1015.44 1015.30 1015.20 1015.15 1015.17 1015.23 1015.34 1015.47 1015.58 1015.67 1015.71 1015.71 1015.66 1015.59 1015.51 1015.46
1010.83 1011.50 1012.27 1013.04 1013.74 1014.28 1014.62 1014.73 1014.64 1014.41 1014.12 1013.84 1013.66 1013.61 1013.69 1013.90 1014.19 1014.50 1014.79 1015.03 1015.20 1015.31 1015.39 1015.46 1015.53 1015.62 1015.72 1015.82 1015.90 1015.93 1015.89 1015.79 1015.63 1015.46 1015.29 1015.17 1015.12 1015.15 1015.26 1015.43 1015.61 1015.78 1015.90 1015.95 1015.91 1015.79 1015.61 1015.41 1015.24
1010.77 1011.46 1012.22 1012.97 1013.61 1014.06 1014.29 1014.28 1014.08 1013.74 1013.38 1013.07 1012.88 1012.86 1013.00 1013.27 1013.63 1014.01 1014.35 1014.62 1014.81 1014.93 1015.01 1015.09 1015.18 1015.30 1015.46 1015.62 1015.76 1015.85 1015.87 1015.81 1015.67 1015.50 1015.33 1015.21 1015.16 1015.20 1015.34 1015.54 1015.77 1015.98 1016.12 1016.17 1016.10 1015.93 1015.67 1015.38 1015.10
1010.74 1011.48 1012.24 1012.95 1013.51 1013.86 1013.97 1013.83 1013.51 1013.08 1012.64 1012.29 1012.09 1012.09 1012.28 1012.61 1013.03 1013.46 1013.85 1014.15 1014.36 1014.49 1014.58 1014.66 1014.78 1014.94 1015.14 1015.36 1015.57 1015.72 1015.80 1015.78 1015.68 1015.53 1015.38 1015.26 1015.21 1015.26 1015.41 1015.63 1015.89 1016.12 1016.28 1016.33 1016.26 1016.06 1015.77 1015.42 1015.08
1010.65 1011.44 1012.22 1012.90 1013.40 1013.65 1013.65 1013.40 1012.97 1012.45 1011.96 1011.58 1011.38 1011.39 1011.61 1011.99 1012.45 1012.93 1013.35 1013.68 1013.91 1014.05 1014.15 1014.24 1014.37 1014.56 1014.79 1015.05 1015.31 1015.52 1015.65 1015.68 1015.62 1015.50 1015.37 1015.26 1015.22 1015.27 1015.42 1015.65 1015.91 1016.15 1016.32 1016.39 1016.34 1016.15 1015.87 1015.53 1015.18
1010.40 1011.25 1012.05 1012.72 1013.17 1013.36 1013.28 1012.95 1012.46 1011.90 1011.37 1010.98 1010.78 1010.81 1011.06 1011.46 1011.95 1012.45 1012.89 1013.24 1013.49 1013.65 1013.75 1013.86 1014.00 1014.19 1014.44 1014.72 1015.00 1015.24 1015.41 1015.48 1015.45 1015.37 1015.26 1015.17 1015.13 1015.18 1015.33 1015.54 1015.79 1016.04 1016.23 1016.33 1016.31 1016.18 1015.95 1015.66 1015.35
1009.95 1010.85 1011.67 1012.33 1012.76 1012.91 1012.80 1012.45 1011.94 1011.38 1010.87 1010.49 1010.32 1010.37 1010.62 1011.04 1011.53 1012.04 1012.50 1012.86 1013.12 1013.29 1013.41 1013.52 1013.66 1013.85 1014.09 1014.37 1014.64 1014.89 1015.06 1015.15 1015.16 1015.10 1015.02 1014.95 1014.93 1014.98 1015.12 1015.32 1015.56 1015.80 1016.01 1016.14 1016.18 1016.12 1015.98 1015.77 1015.55
1009.31 1010.23 1011.05 1011.70 1012.11 1012.26 1012.15 1011.83 1011.37 1010.86 1010.41 1010.09 1009.95 1010.03 1010.30 1010.71 1011.20 1011.69 1012.14 1012.51 1012.78 1012.96 1013.09 1013.21 1013.35 1013.52 1013.74 1013.98 1014.23 1014.45 1014.62 1014.72 1014.75 1014.72 1014.68 1014.64 1014.64 1014.70 1014.83 1015.02 1015.25 1015.49 1015.70 1015.86 1015.96 1015.98 1015.94 1015.84 1015.71
1008.57 1009.46 1010.24 1010.85 1011.24 1011.39 1011.32 1011.07 1010.69 1010.29 1009.93 1009.70 1009.63 1009.74 1010.02 1010.42 1010.89 1011.36 1011.80 1012.16 1012.43 1012.63 1012.78 1012.90 1013.04 1013.20 1013.38 1013.59 1013.80 1013.98 1014.13 1014.22 1014.26 1014.27 1014.27 1014.28 1014.32 1014.41 1014.54 1014.73 1014.95 1015.17 1015.39 1015.57 1015.71 1015.80 1015.84 1015.85 1015.82
Thickness
5820 5822 5822 5816 5806 5791 5773 5776 5783 5779 5777 5782 5782 5778 5770 5764 5760 5749 5767 5774 5774 5774 5773 5769 5769 5769 5769 5770 5770 5770 5770 5770 5770 5770 5770 5770 5769 5769 5768 5768 5768 5768 5768 5768 5768 5767 5766 5764 5763
5829 5826 5821 5816 5799 5776 5769 5780 5778 5777 5781 5785 5783 5779 5772 5766 5770 5767 5769 5772 5774 5773 5773 5770 5767 5768 5768 5768 5768 5769 5769 5769 5769 5769 5768 5768 5768 5767 5767 5767 5767 5767 5767 5766 5765 5765 5764 5763 5761
5832 5829 5821 5812 5792 5778 5772 5781 5780 5783 5788 5785 5779 5778 5772 5765 5769 5769 5771 5774 5774 5772 5771 5768 5766 5766 5766 5767 5767 5767 5767 5768 5768 5768 5767 5767 5766 5766 5766 5765 5765 5765 5764 5764 5763 5762 5762 5761 5760
5832 5829 5824 5806 5785 5787 5787 5787 5788 5784 5785 5786 5781 5771 5771 5773 5774 5774 5775 5776 5775 5773 5772 5767 5765 5765 5765 5766 5766 5766 5766 5766 5766 5766 5766 5765 5765 5764 5764 5764 5764 5763 5763 5762 5762 5761 5760 5760 5759
5836 5829 5811 5795 5788 5792 5796 5795 5794 5786 5782 5784 5782 5769 5764 5773 5778 5777 5776 5776 5775 5775 5772 5768 5764 5764 5764 5764 5765 5766 5765 5765 5765 5764 5764 5764 5764 5763 5763 5762 5762 5762 5761 5761 5760 5759 5759 5758 5758
5834 5829 5804 5787 5786 5793 5798 5799 5795 5787 5783 5783 5781 5771 5765 5774 5776 5776 5777 5777 5777 5775 5773 5768 5764 5763 5763 5763 5764 5764 5763 5763 5763 5763 5763 5763 5762 5762 5762 5761 5761 5760 5760 5759 5758 5758 5758 5757 5757
5830 5821 5804 5796 5789 5790 5795 5802 5795 5787 5782 5783 5786 5773 5768 5774 5777 5779 5778 5777 5776 5775 5773 5771 5769 5765 5763 5762 5762 5762 5762 5762 5762 5762 5762 5762 5761 5762 5762 5761 5761 5760 5759 5758 5758 5757 5757 5756 5755
5842 5827 5808 5803 5794 5790 5800 5802 5799 5793 5784 5792 5792 5775 5768 5774 5780 5780 5777 5776 5775 5775 5774 5771 5771 5768 5767 5765 5762 5761 5761 5761 5761 5761 5761 5761 5761 5762 5761 5761 5760 5759 5758 5758 5757 5757 5756 5755 5754
5845 5824 5806 5805 5801 5797 5804 5798 5798 5802 5793 5791 5792 5787 5783 5782 5781 5778 5775 5773 5772 5772 5773 5773 5772 5770 5769 5768 5764 5763 5762 5761 5761 5762 5761 5762 5764 5766 5764 5761 5759 5758 5758 5758 5757 5756 5755 5755 5755
5839 5818 5810 5817 5818 5809 5805 5801 5798 5796 5787 5784 5783 5785 5785 5782 5779 5775 5772 5770 5769 5769 5772 5773 5772 5770 5769 5769 5767 5767 5766 5764 5764 5763 5764 5764 5763 5764 5765 5760 5759 5759 5758 5758 5757 5757 5756 5757 5759
5836 5820 5821 5823 5824 5818 5808 5804 5805 5796 5785 5785 5781 5780 5781 5780 5778 5776 5774 5773 5772 5772 5773 5774 5772 5770 5771 5770 5769 5768 5768 5765 5766 5764 5764 5763 5765 5766 5766 5764 5762 5761 5761 5762 5759 5760 5762 5762 5761
5832 5828 5828 5825 5826 5820 5812 5808 5803 5799 5794 5798 5794 5789 5784 5780 5779 5778 5775 5774 5773 5773 5773 5774 5773 5771 5770 5770 5771 5770 5769 5768 5767 5765 5765 5766 5766 5766 5766 5765 5766 5765 5764 5763 5763 5762 5762 5761 5760
5830 5827 5829 5829 5826 5822 5816 5808 5803 5799 5802 5802 5796 5790 5785 5783 5782 5781 5780 5777 5775 5773 5773 5774 5772 5770 5769 5769 5770 5772 5770 5770 5768 5766 5765 5765 5766 5766 5766 5765 5764 5766 5765 5765 5763 5762 5761 5760 5759
5834 5831 5829 5828 5824 5820 5812 5806 5803 5799 5804 5798 5793 5789 5788 5786 5784 5782 5779 5777 5776 5774 5774 5775 5773 5771 5770 5769 5769 5771 5771 5768 5769 5767 5766 5766 5767 5766 5766 5766 5764 5765 5765 5765 5763 5762 5760 5760 5759
5839 5827 5823 5824 5822 5820 5815 5799 5801 5805 5805 5796 5793 5790 5789 5788 5787 5783 5782 5780 5779 5777 5777 5775 5774 5773 5771 5771 5772 5772 5772 5773 5770 5769 5767 5766 5767 5766 5766 5766 5765 5765 5764 5762 5762 5761 5761 5759 5758
5833 5823 5812 5819 5822 5820 5812 5793 5805 5811 5804 5797 5795 5792 5790 5789 5789 5788 5787 5784 5783 5781 5778 5776 5777 5774 5772 5770 5770 5772 5773 5771 5770 5770 5769 5767 5767 5766 5766 5766 5766 5764 5764 5763 5762 5762 5760 5758 5757
5822 5815 5812 5814 5823 5820 5814 5802 5809 5814 5807 5799 5797 5796 5793 5791 5791 5791 5791 5788 5786 5783 5779 5777 5776 5775 5773 5772 5771 5771 5770 5769 5770 5770 5770 5768 5767 5767 5768 5766 5765 5764 5765 5764 5764 5762 5759 5756 5755
5816 5818 5815 5813 5821 5819 5812 5810 5813 5814 5810 5805 5802 5800 5796 5794 5794 5795 5794 5792 5789 5786 5782 5779 5777 5775 5774 5773 5772 5771 5771 5771 5771 5770 5768 5768 5768 5768 5769 5768 5765 5766 5764 5762 5761 5758 5757 5756 5755
5830 5821 5815 5817 5825 5817 5812 5812 5814 5815 5812 5808 5806 5803 5800 5798 5801 5799 5797 5794 5791 5787 5783 5780 5778 5776 5775 5774 5773 5771 5770 5771 5771 5771 5769 5768 5768 5768 5767 5769 5765 5764 5763 5761 5761 5759 5757 5755 5754
5827 5818 5816 5818 5823 5818 5813 5814 5820 5820 5815 5814 5810 5807 5805 5803 5801 5798 5797 5795 5792 5788 5785 5782 5780 5779 5777 5775 5773 5772 5772 5772 5772 5772 5769 5769 5768 5768 5769 5766 5767 5765 5762 5760 5760 5758 5757 5756 5755
5822 5820 5819 5814 5817 5820 5813 5810 5816 5821 5822 5819 5817 5815 5813 5809 5805 5801 5799 5797 5795 5790 5788 5787 5782 5780 5778 5777 5777 5774 5772 5772 5772 5770 5770 5769 5768 5768 5766 5766 5766 5764 5764 5761 5759 5758 5755 5753 5754
5815 5829 5825 5817 5810 5811 5812 5800 5815 5821 5818 5818 5818 5818 5817 5816 5812 5808 5804 5800 5798 5795 5793 5789 5785 5781 5780 5778 5778 5774 5771 5770 5770 5770 5771 5770 5769 5768 5767 5766 5765 5764 5764 5760 5760 5759 5757 5754 5752
5823 5830 5825 5820 5814 5811 5815 5807 5818 5825 5817 5821 5824 5824 5824 5822 5818 5813 5810 5806 5803 5801 5797 5792 5787 5783 5781 5780 5778 5775 5774 5773 5773 5772 5769 5769 5769 5768 5767 5766 5764 5763 5763 5760 5759 5757 5756 5755 5752
5826 5821 5818 5818 5816 5796 5810 5806 5810 5827 5826 5829 5831 5830 5829 5827 5823 5819 5816 5811 5807 5804 5800 5795 5789 5784 5783 5781 5780 5777 5775 5773 5771 5770 5769 5770 5770 5769 5767 5766 5763 5763 5762 5759 5758 5757 5756 5754 5752
5820 5808 5792 5788 5791 5796 5816 5808 5817 5838 5843 5840 5837 5835 5834 5831 5826 5821 5816 5812 5808 5805 5802 5798 5791 5786 5784 5782 5780 5778 5776 5774 5771 5771 5770 5770 5770 5769 5766 5766 5763 5762 5760 5759 5757 5756 5754 5753 5750
5816 5816 5795 5784 5789 5804 5808 5806 5829 5846 5848 5847 5845 5842 5837 5833 5830 5825 5821 5816 5812 5808 5803 5799 5793 5788 5786 5784 5781 5779 5777 5777 5776 5772 5773 5771 5770 5769 5767 5764 5762 5760 5759 5758 5756 5757 5754 5751 5749
5812 5814 5829 5814 5807 5801 5809 5818 5834 5844 5841 5842 5841 5840 5836 5835 5832 5829 5825 5821 5816 5811 5806 5802 5796 5791 5788 5786 5782 5780 5778 5777 5775 5773 5772 5772 5769 5768 5765 5763 5761 5759 5757 5755 5754 5753 5750 5748 5748
5825 5824 5814 5806 5787 5786 5801 5809 5821 5829 5834 5838 5839 5838 5838 5837 5834 5831 5827 5824 5820 5816 5810 5805 5799 5793 5790 5787 5784 5782 5779 5776 5774 5773 5770 5769 5767 5766 5764 5762 5759 5757 5755 5753 5751 5751 5748 5745 5743
5806 5808 5810 5809 5809 5794 5792 5812 5844 5839 5841 5840 5842 5842 5841 5838 5836 5833 5829 5826 5822 5817 5812 5806 5800 5795 5791 5788 5784 5781 5778 5777 5774 5772 5769 5767 5766 5764 5761 5759 5756 5754 5752 5750 5748 5748 5745 5742 5740
5818 5814 5809 5795 5793 5802 5805 5817 5849 5849 5849 5847 5845 5844 5843 5840 5839 5835 5830 5825 5821 5817 5812 5807 5803 5798 5793 5789 5785 5781 5778 5776 5774 5771 5769 5766 5764 5762 5760 5757 5754 5752 5750 5747 5745 5743 5742 5740 5737